Overview Statistics Trail Chart Weather Telemetry Raw packets
 

This is the latest recevied weather packets stored in our database for station/object N1YZ. If no packets are shown the sender has not sent any weather packets the latest 10 day(s).

<< 65 66 67 68 69 70 71 >>
Time Temp. Humidity Pressure Rain* Wind** Luminosity Snow
1788195152 31.67° C 71% 1039.7 hPa 0 mm - 670 W/m² -
1788194848 31.67° C 70% 1039.8 hPa 0 mm - 654 W/m² -
1788194544 31.11° C 69% 1039.8 hPa 0 mm - 669 W/m² -
1788194239 30.56° C 70% 1040.2 hPa 0 mm - 660 W/m² -
1788193935 30.56° C 68% 1040.2 hPa 0 mm - 284 W/m² -
1788193633 30.56° C 73% 1040.3 hPa 0 mm - 160 W/m² -
1788193332 30.56° C 74% 1040.2 hPa 0 mm - 96 W/m² -
1788193027 30.56° C 74% 1040.1 hPa 0 mm - 94 W/m² -
1788192724 30° C 77% 1040.3 hPa 0 mm - 197 W/m² -
1788192423 30° C 74% 1040.3 hPa 0 mm - 76 W/m² -
1788192118 30° C 76% 1040.5 hPa 0 mm - 78 W/m² -
1788191818 30° C 77% 1040.4 hPa 0 mm - 120 W/m² -
1788191514 30° C 77% 1040.3 hPa 0 mm - 111 W/m² -
1788191209 30° C 76% 1040.5 hPa 0 mm - 66 W/m² -
1788190904 30° C 77% 1040.4 hPa 0 mm - 64 W/m² -
1788190603 29.44° C 79% 1040.2 hPa 0 mm - 129 W/m² -
1788190300 30° C 75% 1040.2 hPa 0 mm - 121 W/m² -
1788189995 30° C 75% 1040.3 hPa 0 mm - 123 W/m² -
1788189691 30° C 75% 1040.2 hPa 0 mm - 257 W/m² -
1788189391 30° C 75% 1040.4 hPa 0 mm - 253 W/m² -
1788189085 30° C 75% 1040.5 hPa 0 mm - 44 W/m² -
1788188780 30° C 76% 1040.3 hPa 0 mm - 86 W/m² -
1788188476 29.44° C 75% 1040.3 hPa 0 mm - 237 W/m² -
1788188170 30° C 77% 1040.5 hPa 0 mm - 324 W/m² -
1788187866 30.56° C 74% 1040.3 hPa 0 mm - 299 W/m² -

* Rain latest hour (hover to see other rain measurements)
** Current wind speed in m/s (hover to see current wind gust speed)